Date String (YYYY-MM-DD hh:mm:ss) UTC,Instrument flags,absolute air pressure of the measurement (hPa),sample flow rate (lpm),inlet stack bypass flow (lpm),air temperature of the measurement (°C),ambient temperature measured by the external sensor (°C),aerosol sample conditioner tube jacket temperature (°C),OPC LED temperature (°C),internal box temperature (°C),relative humidity of the measurement (%),span deviation,mass concentration of particles derived from Lorenz-Mie calculation of OPC scattering (μg/m³),mass concentration of particles derived from Lorenz-Mie calculation of OPC scattering (μg/m³),mass concentration of particles derived from Lorenz-Mie calculation of OPC scattering (μg/m³)
DateTimeUTC,F1_M11,P_M11,Q1_M11,Q2_M11,T1_M11,T2_M11,T3_M11,T4_M11,T5_M11,U1_M11,ZSPAN_M11,X0_M11,X2_M11,X1_M11
2024-03-29 09:00:00,SystemResetWarning,0820.4,4.99,000.00,021.9,021.0,000.0,030.5,023.7,17.5,0000.0,0008.70,0003.37,0002.38
2024-03-29 09:01:00,SystemResetWarning,0820.3,5.01,000.00,021.9,021.0,000.0,030.5,023.7,17.5,0000.0,0009.33,0003.40,0002.41
2024-03-29 09:02:00,SystemResetWarning,0820.3,5.01,000.00,021.9,021.0,000.0,030.5,023.7,17.5,0000.0,0009.09,0003.43,0002.44
2024-03-29 09:03:00,SystemResetWarning,0820.5,5.00,000.00,021.9,021.0,000.0,030.5,023.7,17.5,0000.0,0008.88,0003.42,0002.43
2024-03-29 09:04:00,SystemResetWarning,0820.7,5.00,000.00,021.9,021.0,000.0,030.5,023.7,17.6,0000.0,0009.02,0003.41,0002.43
2024-03-29 09:05:00,SystemResetWarning,0820.6,4.99,000.00,021.9,021.0,000.0,030.5,023.7,17.5,0000.0,0009.34,0003.42,0002.44
2024-03-29 09:06:00,SystemResetWarning,0820.5,4.99,000.00,021.9,021.0,000.0,030.5,023.7,17.5,0000.0,0009.04,0003.41,0002.44
2024-03-29 09:07:00,SystemResetWarning,0820.3,5.00,000.00,021.9,021.1,000.0,030.5,023.7,17.5,0000.0,0008.86,0003.39,0002.43
2024-03-29 09:08:00,SystemResetWarning,0820.3,5.00,000.00,021.8,021.1,000.0,030.5,023.7,17.5,0000.0,0008.85,0003.38,0002.41
2024-03-29 09:09:00,SystemResetWarning,0820.3,5.01,000.00,021.8,021.1,000.0,030.5,023.7,17.5,0000.0,0008.77,0003.38,0002.41
2024-03-29 09:10:00,SystemResetWarning,0820.3,5.01,000.00,021.8,021.1,000.0,030.5,023.7,17.5,0000.0,0008.89,0003.39,0002.40
2024-03-29 09:11:00,SystemResetWarning,0820.4,5.01,000.00,021.8,021.1,000.0,030.5,023.7,17.4,0000.0,0008.74,0003.37,0002.40
2024-03-29 09:12:00,SystemResetWarning,0820.5,5.00,000.00,021.8,021.0,000.0,030.4,023.7,17.5,0000.0,0008.02,0003.38,0002.39
2024-03-29 09:13:00,SystemResetWarning,0820.8,4.99,000.00,021.8,021.0,000.0,030.4,023.7,17.4,0000.0,0007.95,0003.37,0002.39
2024-03-29 09:14:00,SystemResetWarning,0820.8,5.00,000.00,021.8,021.0,000.0,030.4,023.7,17.4,0000.0,0007.93,0003.36,0002.38
2024-03-29 09:15:00,SystemResetWarning,0820.5,5.02,000.00,021.8,021.0,000.0,030.4,023.7,17.5,0000.0,0008.05,0003.40,0002.40
2024-03-29 09:16:00,SystemResetWarning,0820.6,4.99,000.00,021.8,021.0,000.0,030.4,023.7,17.5,0000.0,0008.75,0003.41,0002.41
2024-03-29 09:17:00,SystemResetWarning,0820.6,4.99,000.00,021.8,021.0,000.0,030.4,023.7,17.5,0000.0,0008.21,0003.44,0002.39
2024-03-29 09:18:00,SystemResetWarning,0820.6,5.01,000.00,021.8,021.0,000.0,030.4,023.7,17.6,0000.0,0008.33,0003.48,0002.39
2024-03-29 09:19:00,SystemResetWarning,0820.6,5.02,000.00,021.8,021.0,000.0,030.4,023.7,17.6,0000.0,0008.32,0003.49,0002.39
2024-03-29 09:20:00,SystemResetWarning,0820.6,4.99,000.00,021.8,021.0,000.0,030.4,023.7,17.6,0000.0,0008.43,0003.53,0002.41
2024-03-29 09:21:00,SystemResetWarning,0820.6,4.99,000.00,021.8,021.0,000.0,030.4,023.7,17.6,0000.0,0008.48,0003.57,0002.43
2024-03-29 09:22:00,SystemResetWarning,0820.6,5.01,000.00,021.8,021.0,000.0,030.4,023.7,17.7,0000.0,0008.47,0003.56,0002.44
2024-03-29 09:23:00,SystemResetWarning,0820.6,5.00,000.00,021.8,021.0,000.0,030.4,023.7,17.7,0000.0,0008.45,0003.54,0002.44
2024-03-29 09:24:00,SystemResetWarning,0820.6,4.99,000.00,021.8,021.1,000.0,030.4,023.7,17.7,0000.0,0008.43,0003.53,0002.44
2024-03-29 09:25:00,SystemResetWarning,0820.6,5.01,000.00,021.8,021.1,000.0,030.4,023.7,17.7,0000.0,0008.39,0003.53,0002.45
2024-03-29 09:26:00,SystemResetWarning,0820.6,5.01,000.00,021.8,021.1,000.0,030.4,023.7,17.7,0000.0,0008.20,0003.51,0002.44
2024-03-29 09:27:00,SystemResetWarning,0820.7,5.00,000.00,021.8,021.1,000.0,030.4,023.7,17.7,0000.0,0007.29,0003.52,0002.44
2024-03-29 09:28:00,SystemResetWarning,0820.7,4.99,000.00,021.8,021.1,000.0,030.4,023.7,17.7,0000.0,0007.29,0003.53,0002.46
2024-03-29 09:29:00,SystemResetWarning,0820.7,4.99,000.00,021.8,021.0,000.0,030.4,023.7,17.8,0000.0,0007.36,0003.54,0002.50
2024-03-29 09:30:00,SystemResetWarning,0820.6,5.01,000.00,021.8,021.0,000.0,030.4,023.6,17.8,0000.0,0007.36,0003.54,0002.52
2024-03-29 09:31:00,SystemResetWarning,0820.6,5.01,000.00,021.8,021.0,000.0,030.4,023.6,17.8,0000.0,0007.16,0003.51,0002.52
2024-03-29 09:32:00,SystemResetWarning,0820.6,4.99,000.00,021.8,021.0,000.0,030.4,023.6,17.7,0000.0,0006.89,0003.48,0002.53
2024-03-29 09:33:00,SystemResetWarning,0820.6,4.99,000.00,021.8,021.0,000.0,030.4,023.6,17.7,0000.0,0006.88,0003.49,0002.54
2024-03-29 09:34:00,SystemResetWarning,0820.6,5.00,000.00,021.8,021.0,000.0,030.4,023.6,17.7,0000.0,0007.08,0003.50,0002.55
2024-03-29 09:35:00,SystemResetWarning,0820.7,5.01,000.00,021.7,021.0,000.0,030.4,023.6,17.7,0000.0,0007.36,0003.53,0002.58
2024-03-29 09:36:00,SystemResetWarning,0820.8,5.01,000.00,021.7,021.0,000.0,030.4,023.6,17.6,0000.0,0007.54,0003.56,0002.59
2024-03-29 09:37:00,SystemResetWarning,0820.8,4.99,000.00,021.7,021.0,000.0,030.4,023.6,17.6,0000.0,0007.72,0003.61,0002.61
2024-03-29 09:38:00,SystemResetWarning,0820.8,4.99,000.00,021.7,021.0,000.0,030.4,023.6,17.6,0000.0,0007.64,0003.62,0002.63
2024-03-29 09:39:00,SystemResetWarning,0820.8,5.00,000.00,021.7,021.0,000.0,030.4,023.6,17.5,0000.0,0007.56,0003.60,0002.64
2024-03-29 09:40:00,SystemResetWarning,0820.8,5.01,000.00,021.7,021.0,000.0,030.4,023.6,17.4,0000.0,0008.08,0003.63,0002.66
2024-03-29 09:41:00,SystemResetWarning,0821.0,5.00,000.00,021.7,021.0,000.0,030.3,023.6,17.4,0000.0,0008.14,0003.64,0002.68
2024-03-29 09:42:00,SystemResetWarning,0821.0,4.99,000.00,021.7,021.0,000.0,030.3,023.6,17.4,0000.0,0008.32,0003.66,0002.69
2024-03-29 09:43:00,SystemResetWarning,0821.0,4.99,000.00,021.7,021.0,000.0,030.3,023.6,17.4,0000.0,0009.16,0003.67,0002.71
2024-03-29 09:44:00,SystemResetWarning,0821.0,5.01,000.00,021.7,021.0,000.0,030.3,023.6,17.4,0000.0,0009.49,0003.65,0002.72
2024-03-29 09:45:00,SystemResetWarning,0820.9,5.00,000.00,021.7,021.0,000.0,030.3,023.6,17.5,0000.0,0009.39,0003.65,0002.74
2024-03-29 09:46:00,SystemResetWarning,0821.0,5.01,000.00,021.7,021.0,000.0,030.3,023.6,17.6,0000.0,0009.37,0003.65,0002.74
2024-03-29 09:47:00,SystemResetWarning,0820.9,5.00,000.00,021.7,020.9,000.0,030.3,023.6,17.6,0000.0,0009.35,0003.65,0002.74
2024-03-29 09:48:00,SystemResetWarning,0820.9,5.00,000.00,021.7,020.9,000.0,030.3,023.5,17.6,0000.0,0009.35,0003.65,0002.74
2024-03-29 09:49:00,SystemResetWarning,0820.8,5.00,000.00,021.7,020.9,000.0,030.3,023.5,17.6,0000.0,0009.40,0003.65,0002.74
2024-03-29 09:50:00,SystemResetWarning,0820.8,5.01,000.00,021.7,021.0,000.0,030.3,023.5,17.6,0000.0,0009.48,0003.67,0002.76
2024-03-29 09:51:00,SystemResetWarning,0820.8,4.99,000.00,021.7,021.0,000.0,030.3,023.5,17.6,0000.0,0008.97,0003.66,0002.75
2024-03-29 09:52:00,SystemResetWarning,0820.8,5.00,000.00,021.7,021.0,000.0,030.3,023.5,17.5,0000.0,0008.94,0003.67,0002.75
2024-03-29 09:53:00,SystemResetWarning,0820.8,5.00,000.00,021.7,020.9,000.0,030.3,023.5,17.5,0000.0,0008.97,0003.68,0002.77
2024-03-29 09:54:00,SystemResetWarning,0820.8,5.00,000.00,021.7,021.0,000.0,030.3,023.5,17.5,0000.0,0008.19,0003.69,0002.78
2024-03-29 09:55:00,SystemResetWarning,0820.8,5.00,000.00,021.7,021.0,000.0,030.3,023.5,17.5,0000.0,0007.84,0003.70,0002.78
2024-03-29 09:56:00,SystemResetWarning,0820.8,5.00,000.00,021.7,021.0,000.0,030.3,023.5,17.3,0000.0,0007.85,0003.71,0002.79
2024-03-29 09:57:00,SystemResetWarning,0821.2,5.00,000.00,021.7,021.0,000.0,030.3,023.5,17.4,0000.0,0007.77,0003.71,0002.79
2024-03-29 09:58:00,SystemResetWarning,0821.1,4.99,000.00,021.7,021.0,000.0,030.3,023.5,17.5,0000.0,0007.62,0003.72,0002.81
2024-03-29 09:59:00,SystemResetWarning,0821.1,5.00,000.00,021.7,021.0,000.0,030.3,023.5,17.6,0000.0,0007.79,0003.74,0002.83
